Regional Weather Roundup
Issued by NWS

Home | Current Version | Previous Version | Graphics & Text | Print | Product List | Glossary On
Versions: 1 2 3 4 5 6 7 8 9 10 11 12 13 14 15 16 17 18 19 20 21 22 23 24 25 26 27 28 29 30 31 32 33 34 35 36 37 38 39 40 41 42 43 44 45 46 47 48 49 50
000
ASUS43 KBIS 230902
RWRND

NORTH DAKOTA REGIONAL WEATHER ROUNDUP
NATIONAL WEATHER SERVICE BISMARCK ND
300 AM CST TUE JAN 23 2018

NOTE: "FAIR" INDICATES FEW OR NO CLOUDS BELOW 12,000 FEET WITH NO
SIGNIFICANT WEATHER AND/OR OBSTRUCTIONS TO VISIBILITY.


NDZ001>003-009>011-017-231000-
NORTHWEST NORTH DAKOTA

CITY           SKY/WX    TMP DP  RH WIND       PRES   REMARKS
WILLISTON      PTCLDY    21  15  78 W10       29.99S WCI  10
MINOT          CLOUDY    13   9  84 CALM      29.95S
MINOT AFB      CLOUDY    10   7  87 S5        29.94S WCI   2
$$

NDZ018>021-031>035-040>046-231000-
SOUTHWEST NORTH DAKOTA

CITY           SKY/WX    TMP DP  RH WIND       PRES   REMARKS
BISMARCK       CLOUDY    18  16  92 SW5       30.02F FOG     WCI  11
DICKINSON      CLOUDY    26  20  77 W12       29.97R WCI  16
GARRISON         N/A     12   9  87 CALM      29.97R
HETTINGER ARPT CLOUDY    26  19  74 W13       30.02S WCI  15
$$

NDZ004>008-012>016-024-026-027-054-231000-
NORTHEAST NORTH DAKOTA

CITY           SKY/WX    TMP DP  RH WIND       PRES   REMARKS
GRAND FORKS    CLOUDY    22  16  78 NE5       30.07S WCI  16
DEVILS LAKE    CLOUDY    18  17  96 S9        30.01F WCI   7
$$

NDZ022-023-025-028>030-036>039-047>053-231000-
SOUTHEAST NORTH DAKOTA

CITY           SKY/WX    TMP DP  RH WIND       PRES   REMARKS
FARGO          CLOUDY    21  18  88 N9        30.06R WCI  11
JAMESTOWN      CLOUDY    19  19 100 S3        30.02F FOG
$$





USA.gov is the U.S. government's official web portal to all federal, state and local government web resources and services.